Home > Weather > Kallithea > Past weeks

Flag for Greece Weather for the Past 2 Weeks in Kallithea, Greece

Now
52 °F

Scattered clouds.


Feels Like: 47 °F
Forecast: 38 / 53 °F
Wind: 14 mph from Northwest

Location: Elefsis Airport

Current Time: Feb 6, 2016 at 2:49:05 PM

Latest Report: Feb 6, 2016 at 2:20 PM


Visibility: N/A

Pressure: 30.33 "Hg

Humidity: 44%

Dew point: 30 °F

Location of KallitheaLocation

Historic Weather in Kallithea — Graph

°F

Kallithea Temperature Yesterday

Maximum temperature yesterday: 54 °F (at 12:50 AM)
Minimum temperature yesterday: 39 °F (at 11:50 PM)
Average temperature yesterday: 46 °F

High & Low Weather Summary for the Past Weeks

 TemperatureHumidityPressure
High70 °F (Feb 2, 11:20 AM)94% (Feb 5, 4:50 AM)30.48 "Hg (Feb 5, 4:50 AM)
Low30 °F (Jan 26, 3:20 AM)35% (Feb 2, 2:20 PM)29.74 "Hg (Feb 5, 4:50 AM)
Average49 °F69%30.28 "Hg
* Reported Jan 22 1:20 PM — Feb 6 1:50 PM, Kallithea, Weather by CustomWeather, © 2016

Note: Actual official high and low records may vary slightly from our data, if they occured in-between our weather recording intervals... More about our weather records

Advertising

Kallithea Weather History for the Previous 24 Hours

 ConditionsComfort  
Time TempWeatherWind HumidityBarometerVisibility
1:50 PM
Sat, Feb 6
52 °FScattered clouds.14 mph44%30.33 "HgN/A
1:20 PM50 °FScattered clouds.14 mph43%30.36 "HgN/A
12:50 PM50 °FScattered clouds.14 mph43%30.36 "HgN/A
12:20 PM50 °FScattered clouds.13 mph47%30.36 "HgN/A
11:50 AM50 °FScattered clouds.14 mph50%30.36 "HgN/A
11:20 AM48 °FScattered clouds.14 mph54%30.36 "HgN/A
10:50 AM46 °FBroken clouds.10 mph62%30.36 "HgN/A
10:20 AM45 °FBroken clouds.9 mph66%30.36 "HgN/A
9:50 AM43 °FBroken clouds.9 mph71%30.36 "HgN/A
9:20 AM43 °FDrizzle. Partly sunny.8 mph71%30.33 "HgN/A
8:50 AM41 °FLight rain. Mostly cloudy.5 mph81%30.33 "HgN/A
8:20 AM41 °FPartly sunny.9 mph81%30.33 "HgN/A
7:50 AM41 °FLight rain. Mostly cloudy.12 mph81%30.30 "Hg6 mi
7:20 AM39 °FLight rain. Mostly cloudy.9 mph87%30.30 "Hg6 mi
6:50 AM39 °FLight rain. Mostly cloudy.9 mph87%30.30 "Hg5 mi
5:50 AM39 °FLight rain. Mostly cloudy.12 mph87%30.27 "Hg5 mi
5:20 AM39 °FLight rain. Mostly cloudy.12 mph87%30.27 "Hg5 mi
4:50 AM39 °FLight rain. Mostly cloudy.12 mph87%30.24 "Hg5 mi
3:50 AM41 °FLight rain. Mostly cloudy.16 mph81%30.21 "Hg5 mi
3:20 AM41 °FPassing clouds.16 mph81%30.21 "Hg5 mi
2:20 AM41 °FLight rain. Mostly cloudy.16 mph81%30.18 "Hg5 mi
1:50 AM41 °FLight rain. Mostly cloudy.18 mph81%30.18 "Hg5 mi
1:20 AM41 °FLight rain. Mostly cloudy.16 mph81%30.18 "Hg5 mi
12:50 AM41 °FLight rain. Mostly cloudy.14 mph81%30.15 "Hg5 mi
12:20 AM39 °FLight rain. Mostly cloudy.12 mph87%30.15 "Hg5 mi
11:50 PM
Fri, Feb 5
39 °FLight rain. Mostly cloudy.16 mph87%30.12 "Hg5 mi
11:20 PM41 °FLight rain. Mostly cloudy.12 mph81%30.12 "Hg5 mi
10:50 PM41 °FLight rain. Mostly cloudy.15 mph81%30.09 "Hg5 mi
10:20 PM41 °FLight rain. Mostly cloudy.14 mph81%30.07 "Hg5 mi
9:50 PM41 °FLight rain. Mostly cloudy.13 mph81%30.07 "Hg5 mi
9:20 PM41 °FLight rain. Mostly cloudy.15 mph81%30.07 "Hg5 mi
8:50 PM41 °FPassing clouds.16 mph81%30.07 "Hg5 mi
8:20 PM43 °FPassing clouds.14 mph76%30.04 "Hg5 mi
7:50 PM43 °FPassing clouds.14 mph76%30.01 "Hg5 mi
7:20 PM43 °FPassing clouds.17 mph76%30.01 "Hg5 mi
6:50 PM43 °FPassing clouds.15 mph76%29.98 "Hg5 mi
6:20 PM43 °FPassing clouds.14 mph76%29.95 "Hg5 mi
5:50 PM43 °FDrizzle. Partly sunny.17 mph81%29.92 "Hg5 mi
5:20 PM43 °FDrizzle. Partly sunny.17 mph81%29.92 "Hg5 mi
4:50 PM45 °FDrizzle. Mostly cloudy.16 mph76%29.92 "Hg5 mi
4:20 PM45 °FDrizzle. Mostly cloudy.21 mph76%29.89 "Hg5 mi
3:50 PM45 °FDrizzle. Mostly cloudy.18 mph81%29.89 "Hg5 mi
3:20 PM45 °FDrizzle. Mostly cloudy.N/A76%29.89 "Hg5 mi
2:50 PM45 °FDrizzle. Mostly cloudy.22 mph76%29.86 "Hg5 mi
2:20 PM46 °FMostly cloudy.26 mph71%29.83 "Hg6 mi
Weather by CustomWeather, © 2016

See weather overviewHow to use our weather pages